Location: Alsip
(41.6689°N, 87.7387°W)
Time: 09:24:50
(UTC+00:00)

GEOS 3 Rocket - Pass Details

Date: 01 November 2020
Orbit: 770 x 850 km, 115.0° (Epoch: 25 November)

Event Time Altitude Azimuth Distance (km) Brightness Sun altitude
Exits shadow 01:54:29 32° 321° (NW) 1,413 5.1 -35.5°
Drops below altitude 10° 01:57:16 10° 323° (NW) 2,470 6.6 -36.1°
Sets 01:59:36 0° 324° (NW) 3,414 7.5 -36.5°
